Regional Weather Roundup
Issued by NWS

Home | Current Version | Previous Version | Text Only | Print | Product List | Glossary On
Versions: 1 2 3 4 5 6 7 8 9 10 11 12 13 14 15 16 17 18 19 20 21 22 23 24 25 26 27 28 29 30 31 32 33 34 35 36 37 38 39 40 41 42 43 44 45 46 47 48 49 50
000
ASUS43 KDTX 270701
RWRMI
MICHIGAN HOURLY REGIONAL WEATHER ROUNDUP
NATIONAL WEATHER SERVICE DETROIT/PONTIAC MI
300 AM EDT FRI APR 27 2018

NOTE: "FAIR" INDICATES FEW OR NO CLOUDS BELOW 12,000 FEET WITH NO
SIGNIFICANT WEATHER AND/OR OBSTRUCTION TO VISIBILITY.

MIZ047>049-052>055-059>063-066>070-074>076-081>083-270800-
SOUTHEAST LOWER MICHIGAN

CITY           SKY/WX    TMP DP  RH WIND       PRES   REMARKS
ADRIAN         FAIR      43  36  76 CALM      29.79F
ALMA           FAIR      37  33  87 CALM      29.75F
ANN ARBOR      FAIR      37  36  96 CALM      29.77F
BAD AXE        FAIR      43  35  71 CALM      29.77S
CARO           FAIR      35  31  87 CALM      29.76F
DETROIT CITY   FAIR      44  38  79 CALM      29.78F
DETROIT        MOCLDY    44  37  76 CALM      29.78F
FLINT          FAIR      40  33  76 CALM      29.77F
GROSSE ILE     FAIR      42  41  94 CALM      29.77F
HILLSDALE      FAIR      37  32  81 CALM      29.77F
HOWELL         FAIR      43  32  65 CALM      29.77F

CITY           SKY/WX    TMP DP  RH WIND       PRES   REMARKS
JACKSON        FAIR      39  34  82 SW3       29.77F
LAMBERTVILLE   FAIR      44  39  81 CALM      29.79F
LANSING        FAIR      43  32  65 S3        29.77F
LAPEER         FAIR      38  35  87 CALM      29.76F
MASON          FAIR      40  30  67 CALM      29.77F
MONROE         FAIR      42  38  89 CALM      29.78F
PONTIAC        FAIR      42  38  85 CALM      29.76F
PORT HOPE        N/A     45  35  68 SW7       29.73F
PORT HURON     FAIR      37  34  87 CALM      29.79F
TRI CITIES     FAIR      46  29  51 SW5       29.76F
MIDLAND        FAIR      37  31  79 CALM      29.75F
TROY           FAIR      46  39  76 CALM      29.80F
SAGINAW HB     FAIR      37  32  81 SE5       29.76F WCI  34
$$
MIZ043>046-050>051-056>058-064>065-071>073-077>080-270800-
SOUTHWEST LOWER MICHIGAN

CITY           SKY/WX    TMP DP  RH WIND       PRES   REMARKS
BATTLE CREEK   FAIR      41  32  70 S6        29.77F
BENTON HARBOR  FAIR      45  25  45 SE5       29.76F
BIG RAPIDS     MOCLDY    41  30  64 CALM      29.74S
COLDWATER      FAIR      40  37  89 CALM      29.78F
HOLLAND        FAIR      46  27  47 S5        29.75F
GRAND RAPIDS   FAIR      44  28  53 CALM      29.75F
IONIA          FAIR      42  29  59 S5        29.74F
KALAMAZOO      FAIR      46  32  58 S6        29.77F
LUDINGTON      CLOUDY    44  32  61 CALM      29.75F
MARSHALL       FAIR      39  34  83 CALM      29.77F
MOUNT PLEASANT FAIR      40  33  75 CALM      29.74F
MUSKEGON       CLOUDY    55  27  34 S10       29.72F
SOUTH HAVEN    FAIR      42  27  54 CALM      29.75F
$$
MIZ016>042-270800-
NORTHERN LOWER MICHIGAN

CITY           SKY/WX    TMP DP  RH WIND       PRES   REMARKS
ALPENA         FAIR      35  34  96 CALM      29.75F
BEAVER ISLAND  DRIZZLE   38  35  88 NW6       29.80F WCI  34
BELLAIRE       FAIR      35  32  90 CALM      29.80S
CADILLAC       FAIR      39  29  68 CALM      29.75F
CHARLEVOIX     MOCLDY    37  34  89 NW7       29.82F WCI  31
FRANKFORT      CLOUDY    39  35  86 N8        29.80S WCI  34
GAYLORD        MOCLDY    37  31  78 CALM      29.75F
HARBOR SPRINGS CLOUDY    35  34  96 CALM      29.78S
HOUGHTON LAKE  FAIR      41  31  67 NW3       29.75F
MANISTEE       MOCLDY    45  30  55 N3        29.77F
OSCODA         FAIR      34  31  90 CALM      29.74F
PELLSTON       CLOUDY    38  34  85 W7        29.78F WCI  33
ROGERS CITY    MOCLDY    38  32  77 CALM      29.77S
TRAVERSE CITY  FAIR      40  33  76 NW6       29.79S
$$
MIZ007>008-015-270800-
EASTERN UPPER MICHIGAN

CITY           SKY/WX    TMP DP  RH WIND       PRES   REMARKS
KINROSS        LGT RAIN  35  33  92 NW9       29.77F WCI  28
MACKINAC ISLAN CLOUDY    37  32  82 NW10      29.77F WCI  30
NEWBERRY       CLOUDY    34  33  96 N7        29.79S WCI  27
MUNISING         N/A     34  32  92 NW8       29.83F WCI  27
$$
MIZ004>006-011>014-085-270800-
CENTRAL UPPER MICHIGAN

CITY           SKY/WX    TMP DP  RH WIND       PRES   REMARKS
MANISTIQUE     CLOUDY    36  34  93 NW8       29.81F WCI  29
ESCANABA       FAIR      34  30  85 NW5       29.84F WCI  30
MENOMINEE      FAIR      37  35  92 N3        29.85F
SAWYER-GWINN   FAIR      30  27  90 CALM      29.84S
$$
MIZ001>003-009>011-084-270800-
WESTERN UPPER MICHIGAN

CITY           SKY/WX    TMP DP  RH WIND       PRES   REMARKS
IRON MOUNTAIN  FAIR      29  25  85 NW5       29.84F WCI  24
HOUGHTON       FAIR      34  24  67 N3        29.85F
COPPER HARBOR    N/A     30  27  88 CALM      29.87F
IRONWOOD       FAIR      27  25  92 E3        29.85F
$$

ABBREVIATIONS USED IN REMARKS
   TC - TEMPERATURE IN CELSIUS
  WCI - WIND CHILL INDEX
   HX - HEAT INDEX
  VSB - VISIBILITY




USA.gov is the U.S. government's official web portal to all federal, state and local government web resources and services.